| time (UTC) | temp F | wind direction | speed knots | gust knots | rain 1hr in | rain 24hr in | rain mn in | humidity % | barometer mb |
| 20260504041607 | 55 | 290 | 1.7 | 1.7 | 0.00 | 0.00 | 0.00 | 74 | 1021.1 |
| 20260504041104 | 55 | 298 | 0.9 | 1.7 | 0.00 | 0.00 | 0.00 | 76 | 1021.4 |
| 20260504040601 | 55 | 296 | 0.9 | 1.7 | 0.00 | 0.00 | 0.00 | 75 | 1021.1 |
| 20260504040058 | 55 | 286 | 1.7 | 1.7 | 0.00 | 0.00 | 0.00 | 74 | 1021.3 |
| 20260504035555 | 55 | 282 | 1.7 | 2.6 | 0.00 | 0.00 | 0.00 | 75 | 1021.0 |
| 20260504035051 | 56 | 275 | 0.9 | 1.7 | 0.00 | 0.00 | 0.00 | 74 | 1021.3 |
| 20260504034549 | 56 | 283 | 0.9 | 1.7 | 0.00 | 0.00 | 0.00 | 73 | 1021.1 |
| 20260504034045 | 56 | 302 | 0.0 | 1.7 | 0.00 | 0.00 | 0.00 | 70 | 1021.2 |
| 20260504033544 | 56 | 293 | 0.9 | 1.7 | 0.00 | 0.00 | 0.00 | 73 | 1021.1 |
| 20260504033041 | 56 | 222 | 0.9 | 1.7 | 0.00 | 0.00 | 0.00 | 73 | 1021.0 |
| 20260504032538 | 56 | 209 | 0.9 | 1.7 | 0.00 | 0.00 | 0.00 | 71 | 1021.1 |
| 20260504032034 | 56 | 265 | 0.9 | 2.6 | 0.00 | 0.00 | 0.00 | 73 | 1021.1 |
| 20260504031531 | 56 | 267 | 0.9 | 1.7 | 0.00 | 0.00 | 0.00 | 74 | 1021.0 |
| 20260504031027 | 55 | 289 | 0.9 | 1.7 | 0.00 | 0.00 | 0.00 | 75 | 1021.0 |
| 20260504030525 | 55 | 281 | 1.7 | 1.7 | 0.00 | 0.00 | 0.00 | 77 | 1021.0 |
| 20260504030021 | 55 | 294 | 1.7 | 1.7 | 0.00 | 0.00 | 0.00 | 76 | 1021.1 |
| 20260504025518 | 55 | 294 | 1.7 | 2.6 | 0.00 | 0.00 | 0.00 | 74 | 1020.7 |
| 20260504025015 | 55 | 294 | 1.7 | 1.7 | 0.00 | 0.00 | 0.00 | 74 | 1020.8 |
| 20260504024512 | 55 | 279 | 1.7 | 2.6 | 0.00 | 0.00 | 0.00 | 75 | 1020.7 |
| 20260504024009 | 55 | 294 | 1.7 | 2.6 | 0.00 | 0.00 | 0.00 | 73 | 1020.5 |
| 20260504023505 | 55 | 295 | 1.7 | 1.7 | 0.00 | 0.00 | 0.00 | 75 | 1020.6 |
| 20260504023001 | 55 | 281 | 1.7 | 2.6 | 0.00 | 0.00 | 0.00 | 73 | 1020.6 |
| 20260504022457 | 55 | 292 | 1.7 | 2.6 | 0.00 | 0.00 | 0.00 | 75 | 1020.7 |
| 20260504021954 | 55 | 281 | 1.7 | 2.6 | 0.00 | 0.00 | 0.00 | 74 | 1020.7 |
| 20260504021452 | 55 | 278 | 1.7 | 2.6 | 0.00 | 0.00 | 0.00 | 75 | 1020.5 |
| 20260504020948 | 55 | 266 | 1.7 | 1.7 | 0.00 | 0.00 | 0.00 | 74 | 1020.7 |
| 20260504020445 | 55 | 291 | 2.6 | 2.6 | 0.00 | 0.00 | 0.00 | 74 | 1020.5 |
| 20260504015942 | 56 | 293 | 1.7 | 1.7 | 0.00 | 0.00 | 0.00 | 74 | 1020.6 |
| 20260504015438 | 56 | 284 | 1.7 | 3.5 | 0.00 | 0.00 | 0.00 | 75 | 1020.7 |
| 20260504014934 | 56 | 293 | 2.6 | 2.6 | 0.00 | 0.00 | 0.00 | 73 | 1020.5 |
| 20260504014430 | 56 | 289 | 1.7 | 1.7 | 0.00 | 0.00 | 0.00 | 73 | 1020.6 |
| 20260504013927 | 56 | 286 | 1.7 | 2.6 | 0.00 | 0.00 | 0.00 | 72 | 1020.6 |
| 20260504013426 | 56 | 307 | 1.7 | 2.6 | 0.00 | 0.00 | 0.00 | 73 | 1020.6 |
| 20260504012921 | 56 | 292 | 1.7 | 2.6 | 0.00 | 0.00 | 0.00 | 74 | 1020.4 |
| 20260504012420 | 56 | 290 | 1.7 | 2.6 | 0.00 | 0.00 | 0.00 | 72 | 1020.3 |
| 20260504011917 | 57 | 288 | 1.7 | 2.6 | 0.00 | 0.00 | 0.00 | 72 | 1020.1 |
| 20260504011413 | 57 | 289 | 1.7 | 2.6 | 0.00 | 0.00 | 0.00 | 72 | 1020.4 |
| 20260504010909 | 57 | 286 | 1.7 | 2.6 | 0.00 | 0.00 | 0.00 | 71 | 1020.1 |
| 20260504010405 | 57 | 291 | 1.7 | 2.6 | 0.00 | 0.00 | 0.00 | 70 | 1020.2 |
| 20260504005902 | 58 | 290 | 1.7 | 2.6 | 0.00 | 0.00 | 0.00 | 72 | 1020.2 |
| 20260504005358 | 58 | 295 | 1.7 | 2.6 | 0.00 | 0.00 | 0.00 | 71 | 1020.1 |
| 20260504004856 | 59 | 282 | 1.7 | 1.7 | 0.00 | 0.00 | 0.00 | 72 | 1019.9 |
| 20260504004353 | 59 | 276 | 1.7 | 1.7 | 0.00 | 0.00 | 0.00 | 72 | 1020.0 |
| 20260504003850 | 59 | 277 | 1.7 | 2.6 | 0.00 | 0.00 | 0.00 | 70 | 1019.9 |
| 20260504003347 | 59 | 295 | 1.7 | 2.6 | 0.00 | 0.00 | 0.00 | 69 | 1019.9 |
| 20260504002843 | 60 | 280 | 1.7 | 1.7 | 0.00 | 0.00 | 0.00 | 69 | 1019.9 |
| 20260504002340 | 60 | 290 | 1.7 | 1.7 | 0.00 | 0.00 | 0.00 | 68 | 1020.1 |
| 20260504001838 | 61 | 286 | 0.9 | 1.7 | 0.00 | 0.00 | 0.00 | 67 | 1019.8 |
| 20260504001335 | 62 | 288 | 1.7 | 1.7 | 0.00 | 0.00 | 0.00 | 69 | 1020.0 |
| 20260504000832 | 62 | 285 | 1.7 | 1.7 | 0.00 | 0.00 | 0.00 | 64 | 1020.0 |
| 20260504000329 | 62 | 288 | 1.7 | 1.7 | 0.00 | 0.00 | 0.00 | 66 | 1020.0 |
| 20260503235826 | 63 | 289 | 0.9 | 1.7 | 0.00 | 0.00 | 0.00 | 64 | 1019.9 |
| 20260503235324 | 64 | 270 | 0.9 | 2.6 | 0.00 | 0.00 | 0.00 | 64 | 1020.1 |
| 20260503234821 | 64 | 279 | 1.7 | 1.7 | 0.00 | 0.00 | 0.00 | 57 | 1019.8 |
| 20260503234319 | 65 | 283 | 1.7 | 1.7 | 0.00 | 0.00 | 0.00 | 52 | 1020.0 |
| 20260503233816 | 66 | 181 | 0.9 | 1.7 | 0.00 | 0.00 | 0.00 | 51 | 1020.2 |
| 20260503233312 | 66 | 305 | 0.9 | 1.7 | 0.00 | 0.00 | 0.00 | 50 | 1020.0 |
| 20260503232809 | 67 | 212 | 0.9 | 1.7 | 0.00 | 0.00 | 0.00 | 47 | 1019.9 |
| 20260503232306 | 67 | 203 | 1.7 | 2.6 | 0.00 | 0.00 | 0.00 | 48 | 1020.1 |
| 20260503231804 | 68 | 177 | 0.0 | 2.6 | 0.00 | 0.00 | 0.00 | 48 | 1019.9 |
| 20260503231301 | 69 | 199 | 2.6 | 3.5 | 0.00 | 0.00 | 0.00 | 45 | 1020.1 |
| 20260503230802 | 70 | 172 | 1.7 | 2.6 | 0.00 | 0.00 | 0.00 | 45 | 1020.2 |
| 20260503230259 | 71 | 172 | 1.7 | 1.7 | 0.00 | 0.00 | 0.00 | 42 | 1020.3 |
| 20260503225757 | 70 | 218 | 1.7 | 5.2 | 0.00 | 0.00 | 0.00 | 41 | 1020.3 |
| 20260503225258 | 71 | 157 | 0.9 | 3.5 | 0.00 | 0.00 | 0.00 | 43 | 1020.2 |
| 20260503224755 | 70 | 244 | 0.9 | 2.6 | 0.00 | 0.00 | 0.00 | 43 | 1020.2 |
| 20260503224252 | 70 | 197 | 1.7 | 3.5 | 0.00 | 0.00 | 0.00 | 43 | 1020.2 |
| 20260503223749 | 71 | 203 | 1.7 | 1.7 | 0.00 | 0.00 | 0.00 | 44 | 1020.2 |
| 20260503223247 | 70 | 199 | 2.6 | 2.6 | 0.00 | 0.00 | 0.00 | 44 | 1020.2 |
| 20260503222743 | 71 | 199 | 2.6 | 2.6 | 0.00 | 0.00 | 0.00 | 44 | 1020.2 |
| 20260503222241 | 70 | 238 | 1.7 | 5.2 | 0.00 | 0.00 | 0.00 | 46 | 1020.2 |
| 20260503221739 | 70 | 192 | 5.2 | 7.0 | 0.00 | 0.00 | 0.00 | 48 | 1020.2 |
| 20260503221237 | 70 | 186 | 5.2 | 6.1 | 0.00 | 0.00 | 0.00 | 45 | 1020.5 |
| 20260503220733 | 70 | 187 | 4.3 | 5.2 | 0.00 | 0.00 | 0.00 | 44 | 1020.5 |
| 20260503220230 | 69 | 183 | 3.5 | 7.0 | 0.00 | 0.00 | 0.00 | 44 | 1020.5 |
| 20260503215727 | 69 | 203 | 2.6 | 6.1 | 0.00 | 0.00 | 0.00 | 44 | 1020.4 |
| 20260503215224 | 69 | 191 | 3.5 | 3.5 | 0.00 | 0.00 | 0.00 | 48 | 1020.3 |
| 20260503214722 | 69 | 182 | 5.2 | 6.1 | 0.00 | 0.00 | 0.00 | 47 | 1020.5 |
| 20260503214219 | 69 | 219 | 0.9 | 6.1 | 0.00 | 0.00 | 0.00 | 46 | 1020.6 |
| 20260503213717 | 69 | 174 | 3.5 | 3.5 | 0.00 | 0.00 | 0.00 | 50 | 1020.7 |
| 20260503213214 | 69 | 181 | 3.5 | 6.1 | 0.00 | 0.00 | 0.00 | 51 | 1020.7 |
| 20260503212710 | 68 | 198 | 4.3 | 6.1 | 0.00 | 0.00 | 0.00 | 45 | 1020.8 |
| 20260503212208 | 69 | 191 | 1.7 | 6.1 | 0.00 | 0.00 | 0.00 | 47 | 1020.8 |
| 20260503211705 | 68 | 198 | 4.3 | 7.0 | 0.00 | 0.00 | 0.00 | 51 | 1020.8 |
| 20260503211201 | 68 | 197 | 7.8 | 7.8 | 0.00 | 0.00 | 0.00 | 51 | 1020.9 |
| 20260503210657 | 68 | 197 | 5.2 | 7.0 | 0.00 | 0.00 | 0.00 | 48 | 1020.8 |
| 20260503210154 | 69 | 192 | 7.0 | 7.0 | 0.00 | 0.00 | 0.00 | 54 | 1020.8 |
| 20260503205650 | 68 | 177 | 5.2 | 7.0 | 0.00 | 0.00 | 0.00 | 49 | 1021.0 |
| 20260503205146 | 68 | 190 | 3.5 | 8.7 | 0.00 | 0.00 | 0.00 | 47 | 1021.1 |
| 20260503204643 | 68 | 188 | 5.2 | 7.0 | 0.00 | 0.00 | 0.00 | 53 | 1021.1 |
| 20260503204141 | 68 | 181 | 6.1 | 7.0 | 0.00 | 0.00 | 0.00 | 52 | 1021.2 |
| 20260503203637 | 68 | 180 | 7.0 | 7.8 | 0.00 | 0.00 | 0.00 | 53 | 1021.3 |
| 20260503203135 | 69 | 182 | 6.1 | 6.1 | 0.00 | 0.00 | 0.00 | 52 | 1021.6 |
| 20260503202632 | 68 | 186 | 5.2 | 7.0 | 0.00 | 0.00 | 0.00 | 43 | 1021.5 |
| 20260503202130 | 68 | 242 | 3.5 | 5.2 | 0.00 | 0.00 | 0.00 | 43 | 1021.5 |
| 20260503201628 | 67 | 198 | 6.1 | 7.0 | 0.00 | 0.00 | 0.00 | 45 | 1021.6 |
| 20260503201125 | 67 | 175 | 3.5 | 6.1 | 0.00 | 0.00 | 0.00 | 44 | 1021.7 |
| 20260503200621 | 68 | 193 | 5.2 | 6.1 | 0.00 | 0.00 | 0.00 | 45 | 1021.9 |
| 20260503200118 | 67 | 191 | 4.3 | 7.0 | 0.00 | 0.00 | 0.00 | 44 | 1021.7 |
| 20260503195615 | 67 | 191 | 6.1 | 7.0 | 0.00 | 0.00 | 0.00 | 48 | 1022.0 |
| 20260503195112 | 67 | 197 | 6.1 | 7.8 | 0.00 | 0.00 | 0.00 | 47 | 1022.0 |
| 20260503194609 | 67 | 185 | 6.1 | 9.6 | 0.00 | 0.00 | 0.00 | 45 | 1022.2 |
| 20260503194103 | 68 | 163 | 3.5 | 3.5 | 0.00 | 0.00 | 0.00 | 47 | 1022.2 |
| 20260503193600 | 67 | 183 | 2.6 | 3.5 | 0.00 | 0.00 | 0.00 | 43 | 1022.3 |
| 20260503193056 | 67 | 179 | 2.6 | 5.2 | 0.00 | 0.00 | 0.00 | 44 | 1022.5 |
| 20260503192552 | 67 | 160 | 3.5 | 6.1 | 0.00 | 0.00 | 0.00 | 47 | 1022.5 |
| 20260503192048 | 67 | 177 | 4.3 | 5.2 | 0.00 | 0.00 | 0.00 | 48 | 1022.6 |
| 20260503191545 | 66 | 166 | 1.7 | 5.2 | 0.00 | 0.00 | 0.00 | 50 | 1022.6 |
| 20260503191042 | 65 | 171 | 4.3 | 6.1 | 0.00 | 0.00 | 0.00 | 47 | 1022.7 |
| 20260503190539 | 65 | 163 | 1.7 | 3.5 | 0.00 | 0.00 | 0.00 | 52 | 1022.7 |
| 20260503190036 | 65 | 137 | 3.5 | 5.2 | 0.00 | 0.00 | 0.00 | 46 | 1023.0 |
| 20260503185533 | 66 | 171 | 3.5 | 3.5 | 0.00 | 0.00 | 0.00 | 49 | 1022.9 |
| 20260503185032 | 64 | 136 | 2.6 | 2.6 | 0.00 | 0.00 | 0.00 | 53 | 1023.2 |
| 20260503184528 | 64 | 164 | 2.6 | 3.5 | 0.00 | 0.00 | 0.00 | 51 | 1023.1 |
| 20260503184025 | 64 | 165 | 2.6 | 2.6 | 0.00 | 0.00 | 0.00 | 51 | 1023.1 |
| 20260503183522 | 64 | 162 | 1.7 | 2.6 | 0.00 | 0.00 | 0.00 | 52 | 1023.0 |
| 20260503183019 | 63 | 159 | 1.7 | 3.5 | 0.00 | 0.00 | 0.00 | 49 | 1023.3 |
| 20260503182518 | 64 | 159 | 1.7 | 2.6 | 0.00 | 0.00 | 0.00 | 50 | 1023.2 |
| 20260503182015 | 64 | 181 | 2.6 | 3.5 | 0.00 | 0.00 | 0.00 | 52 | 1023.6 |
| 20260503181512 | 64 | 189 | 2.6 | 2.6 | 0.00 | 0.00 | 0.00 | 54 | 1023.4 |
| 20260503181008 | 63 | 154 | 1.7 | 2.6 | 0.00 | 0.00 | 0.00 | 54 | 1023.5 |
| 20260503180506 | 62 | 167 | 1.7 | 2.6 | 0.00 | 0.00 | 0.00 | 58 | 1023.5 |
| 20260503180002 | 61 | 153 | 1.7 | 2.6 | 0.00 | 0.00 | 0.00 | 56 | 1023.5 |
| 20260503175500 | 61 | 128 | 0.9 | 2.6 | 0.00 | 0.00 | 0.00 | 56 | 1023.8 |
| 20260503174956 | 60 | 130 | 2.6 | 2.6 | 0.00 | 0.00 | 0.00 | 55 | 1023.8 |
| 20260503174454 | 60 | 97 | 1.7 | 2.6 | 0.00 | 0.00 | 0.00 | 55 | 1024.0 |
| 20260503173949 | 60 | 103 | 0.9 | 1.7 | 0.00 | 0.00 | 0.00 | 52 | 1024.0 |
| 20260503173445 | 62 | 154 | 1.7 | 2.6 | 0.00 | 0.00 | 0.00 | 53 | 1024.2 |
| 20260503172942 | 62 | 170 | 2.6 | 2.6 | 0.00 | 0.00 | 0.00 | 52 | 1024.2 |
| 20260503172440 | 61 | 128 | 0.0 | 0.9 | 0.00 | 0.00 | 0.00 | 53 | 1024.3 |
| 20260503171936 | 62 | 149 | 0.0 | 1.7 | 0.00 | 0.00 | 0.00 | 52 | 1024.5 |
| 20260503171433 | 61 | 181 | 2.6 | 2.6 | 0.00 | 0.00 | 0.00 | 52 | 1024.6 |
| 20260503170931 | 61 | 188 | 2.6 | 3.5 | 0.00 | 0.00 | 0.00 | 55 | 1024.6 |
| 20260503170426 | 60 | 199 | 2.6 | 3.5 | 0.00 | 0.00 | 0.00 | 54 | 1024.7 |
| 20260503150819 | 56 | 64 | 2.6 | 5.2 | 0.00 | 0.00 | 0.00 | 62 | 1025.7 |
| 20260503150315 | 55 | 101 | 2.6 | 5.2 | 0.00 | 0.00 | 0.00 | 61 | 1025.5 |
| 20260503140239 | 55 | 57 | 3.5 | 5.2 | 0.00 | 0.00 | 0.00 | 76 | 1025.3 |
| 20260503131209 | 53 | 72 | 1.7 | 1.7 | 0.00 | 0.00 | 0.00 | 75 | 1025.3 |
| 20260503130707 | 53 | 59 | 1.7 | 3.5 | 0.00 | 0.00 | 0.00 | 77 | 1025.1 |
| 20260503130204 | 53 | 50 | 2.6 | 3.5 | 0.00 | 0.00 | 0.00 | 75 | 1025.2 |
| 20260503120129 | 49 | 356 | 0.0 | 0.9 | 0.00 | 0.00 | 0.00 | 91 | 1024.9 |
| 20260503110556 | 44 | 302 | 0.9 | 1.7 | 0.00 | 0.00 | 0.00 | 95 | 1024.1 |
| 20260503090444 | 46 | 287 | 1.7 | 2.6 | 0.00 | 0.00 | 0.00 | 91 | 1023.1 |
| 20260503081410 | 47 | 171 | 0.0 | 0.0 | 0.00 | 0.00 | 0.00 | 91 | 1023.0 |
| 20260503080907 | 47 | 129 | 0.0 | 0.0 | 0.00 | 0.00 | 0.00 | 91 | 1022.9 |
| 20260503080404 | 47 | 90 | 0.0 | 0.0 | 0.00 | 0.00 | 0.00 | 91 | 1023.0 |
| 20260503072840 | 47 | 330 | 0.9 | 0.9 | 0.00 | 0.00 | 0.00 | 89 | 1022.5 |
| 20260503072337 | 47 | 342 | 0.9 | 0.9 | 0.00 | 0.00 | 0.00 | 89 | 1022.5 |
| 20260503071833 | 48 | 259 | 0.0 | 0.9 | 0.00 | 0.00 | 0.00 | 89 | 1022.2 |
| 20260503071331 | 47 | 284 | 0.9 | 1.7 | 0.00 | 0.00 | 0.00 | 89 | 1022.4 |
| 20260503070827 | 47 | 276 | 1.7 | 1.7 | 0.00 | 0.00 | 0.00 | 88 | 1022.4 |
| 20260503070325 | 47 | 301 | 1.7 | 1.7 | 0.00 | 0.00 | 0.00 | 88 | 1022.4 |
| 20260503060250 | 48 | 23 | 0.9 | 0.9 | 0.00 | 0.00 | 0.00 | 86 | 1022.1 |
| 20260503054737 | 49 | 291 | 0.9 | 1.7 | 0.00 | 0.00 | 0.00 | 86 | 1022.0 |
| 20260503054234 | 49 | 291 | 0.9 | 1.7 | 0.00 | 0.00 | 0.00 | 85 | 1022.1 |
| 20260503053732 | 49 | 332 | 0.0 | 0.9 | 0.00 | 0.00 | 0.00 | 84 | 1022.2 |
| 20260503053231 | 49 | 342 | 0.9 | 0.9 | 0.00 | 0.00 | 0.00 | 85 | 1022.2 |
| 20260503052726 | 49 | 295 | 1.7 | 3.5 | 0.00 | 0.00 | 0.00 | 84 | 1022.3 |
| 20260503052223 | 49 | 295 | 1.7 | 1.7 | 0.00 | 0.00 | 0.00 | 85 | 1022.1 |
| 20260503051718 | 49 | 297 | 1.7 | 1.7 | 0.00 | 0.00 | 0.00 | 85 | 1021.9 |
| 20260503051216 | 49 | 290 | 1.7 | 1.7 | 0.00 | 0.00 | 0.00 | 85 | 1022.2 |
| 20260503050712 | 49 | 292 | 1.7 | 2.6 | 0.00 | 0.00 | 0.00 | 84 | 1022.2 |
| 20260503050209 | 49 | 291 | 1.7 | 2.6 | 0.00 | 0.00 | 0.00 | 84 | 1022.0 |
| 20260503045707 | 49 | 295 | 1.7 | 2.6 | 0.00 | 0.00 | 0.00 | 83 | 1021.9 |
| 20260503045204 | 50 | 283 | 1.7 | 2.6 | 0.00 | 0.00 | 0.00 | 83 | 1022.0 |
| 20260503044700 | 49 | 285 | 1.7 | 2.6 | 0.00 | 0.00 | 0.00 | 84 | 1022.0 |
| 20260503044158 | 49 | 286 | 1.7 | 1.7 | 0.00 | 0.00 | 0.00 | 83 | 1021.9 |
| 20260503043654 | 49 | 303 | 1.7 | 1.7 | 0.00 | 0.00 | 0.00 | 82 | 1021.9 |
| 20260503043152 | 49 | 301 | 1.7 | 2.6 | 0.00 | 0.00 | 0.00 | 81 | 1021.7 |
| 20260503042647 | 50 | 289 | 1.7 | 2.6 | 0.00 | 0.00 | 0.00 | 81 | 1021.8 |
| 20260503042144 | 51 | 313 | 1.7 | 1.7 | 0.00 | 0.00 | 0.00 | 80 | 1021.8 |